Regional Weather Roundup
Issued by NWS Sioux Falls, SD

Home | Current Version | Previous Version | Graphics & Text | Print | Product List | Glossary Off
Versions: 1 2 3 4 5 6 7 8 9 10 11 12 13 14 15 16 17 18 19 20 21 22 23 24 25 26 27 28 29 30 31 32 33 34 35 36 37 38 39 40 41 42 43 44 45 46 47 48 49 50

000
ASUS43 KFSD 261010
RWRFSD

WEATHER ROUNDUP FOR SE SOUTH DAKOTA/SW MINNESOTA/NW IOWA
NATIONAL WEATHER SERVICE SIOUX FALLS SD
500 AM CDT SAT JUL 26 2014

NOTE: "FAIR" INDICATES FEW OR NO CLOUDS BELOW 12,000 FEET WITH NO
SIGNIFICANT WEATHER AND OR OBSTRUCTIONS TO VISIBILITY.


SDZ038>040-050-052>070-261100-
SOUTHEAST SOUTH DAKOTA

CITY           SKY/WX    TMP DP  RH WIND       PRES   REMARKS
CHAMBERLAIN    PTCLDY    69  65  87 SE10      29.83R
HURON          CLOUDY    68  66  93 N10       29.82S THUNDER
MADISON        PTSUNNY   66  66 100 E6        29.81F
MITCHELL       MOCLDY    69  67  93 NE3       29.83R
SIOUX FALLS    CLOUDY    71  69  93 E7        29.83R
WINNER         FAIR      69  66  90 E6        29.83R
YANKTON        MOCLDY    70  68  94 NE6       29.81R
$$

MNZ071-072-080-081-089-090-097-098-261100-
SOUTHWEST MINNESOTA

CITY           SKY/WX    TMP DP  RH WIND       PRES   REMARKS
FAIRMONT       MOCLDY    72  66  83 NW3       29.84S
JACKSON        CLOUDY    72  68  88 N3        29.86R
LUVERNE        CLOUDY    72  68  88 NE3       29.84F FOG
MARSHALL       CLOUDY    66  64  94 SW3       29.82F
MONTEVIDEO     FOG       64  63  94 CALM      29.82F VSB 1/2
PIPESTONE      CLOUDY    70  66  88 CALM      29.89R
REDWOOD FALLS  MOCLDY    68  67  96 CALM      29.82R FOG
TRACY          CLOUDY    67  66  96 SW9       29.86R FOG
WINDOM         MOCLDY    70  66  88 CALM      29.85S FOG
WORTHINGTON    MOCLDY    70  68  94 E5        29.85F
$$

IAZ001>003-012>014-020>022-031-032-NEZ013-014-SDZ071-261100-
NORTHWEST IOWA

CITY           SKY/WX    TMP DP  RH WIND       PRES   REMARKS
CHEROKEE       MOCLDY    68  68 100 NE3       29.82F FOG
DENISON        MOCLDY    70  70 100 VRB6G13   29.78F FOG
ESTHERVILLE    PTCLDY    69  68  96 N5        29.85R FOG
LE MARS        MOCLDY    70  68  94 NE8       29.79F
ORANGE CITY    FOG       70  66  88 E5        29.83S VSB 3/4
SHELDON        CLOUDY    68  68 100 E5        29.83R FOG
SIOUX CITY     MOCLDY    70  68  93 S6        29.80R
SPENCER        CLOUDY    70  68  93 CALM      29.85R FOG
STORM LAKE     FOG       66  66 100 SE6       29.84F VSB 1/4
$$

ABBREVIATIONS USED IN REMARKS
   TC - TEMPERATURE IN CELSIUS
  WCI - WIND CHILL INDEX
   HX - HEAT INDEX
  VSB - VISIBILITY




USA.gov is the U.S. government's official web portal to all federal, state and local government web resources and services.